Terminal Aerodrome Forecast
Issued by NWS

Home | Current Version | Previous Version | Text Only | Print | Product List | Glossary On
Versions: 1 2 3 4 5 6 7 8 9 10 11 12 13 14 15 16 17 18 19 20 21 22 23 24 25 26 27 28 29 30 31 32 33 34
000
FTUS41 KBOX 292322
TAFBED
TAF
KBED 292322Z 3000/3024 12006KT P6SM FEW250
     FM300300 18004KT P6SM FEW250
     FM300800 20004KT 5SM BR SCT250
     FM301200 22009KT P6SM SCT250
     FM301800 22013G21KT P6SM SCT200
     FM302100 20014G29KT P6SM SCT200=

USA.gov is the U.S. government's official web portal to all federal, state and local government web resources and services.